OAL101 DNPO-DNMM

Flight info

Callsign OAL101
Flight time 1h 27m
Altitude 6500
Route PORTHARCOURT OFONI BOMADI OBORO GBAROGOLO NIKOROGHA AGGI GULANI UBACKE AWOYE ISEKUN EPE MOWE ILATE MURTALAMUHAMMED
Aircraft BE9L/L-ABDFGSDX/G

Departure

Time 2026-04-25 07:43
Airport Port Harcourt International Airport (DNPO)

Arrival

Time 2026-04-25 09:10
Airport Murtala Muhammed International Airport (DNMM)
Time Latitude Longitude Altitude Speed Heading
2026-04-25 07:29 5.01760 6.95551 133 ft 0 kts 301°
2026-04-25 07:40 5.01764 6.95543 133 ft 6 kts 284°
2026-04-25 07:40 5.01769 6.95484 131 ft 7 kts 300°
2026-04-25 07:40 5.01792 6.95440 131 ft 6 kts 298°
2026-04-25 07:41 5.01813 6.95401 131 ft 7 kts 298°
2026-04-25 07:41 5.01861 6.95362 131 ft 11 kts 350°
2026-04-25 07:41 5.01945 6.95395 131 ft 14 kts 30°
2026-04-25 07:41 5.02028 6.95441 131 ft 10 kts 30°
2026-04-25 07:42 5.02104 6.95446 130 ft 12 kts 320°
2026-04-25 07:42 5.02109 6.95372 131 ft 11 kts 240°
2026-04-25 07:42 5.02045 6.95264 132 ft 29 kts 236°
2026-04-25 07:42 5.01679 6.95035 134 ft 96 kts 210°
2026-04-25 07:43 5.00985 6.94639 300 ft 119 kts 209°
2026-04-25 07:43 5.00209 6.94195 657 ft 129 kts 216°
2026-04-25 07:43 4.99772 6.93523 1219 ft 126 kts 267°
2026-04-25 07:43 4.99858 6.92564 1424 ft 149 kts 261°
2026-04-25 07:44 4.99911 6.91468 1674 ft 169 kts 288°
2026-04-25 07:44 5.00323 6.90321 1904 ft 182 kts 288°
2026-04-25 07:44 5.00758 6.89085 2113 ft 190 kts 289°
2026-04-25 07:44 5.00948 6.87782 2301 ft 189 kts 265°
2026-04-25 07:45 5.00864 6.86448 2505 ft 194 kts 265°
2026-04-25 07:45 5.00752 6.85097 2717 ft 196 kts 264°
2026-04-25 07:45 5.00646 6.83738 3093 ft 193 kts 264°
2026-04-25 07:45 5.00544 6.82405 3471 ft 191 kts 264°
2026-04-25 07:46 5.00446 6.81103 3843 ft 189 kts 264°
2026-04-25 07:46 5.00339 6.79784 4226 ft 188 kts 264°
2026-04-25 07:46 5.00237 6.78472 4490 ft 194 kts 265°
2026-04-25 07:46 5.00130 6.77071 4509 ft 209 kts 265°
2026-04-25 07:47 5.00010 6.75584 4507 ft 220 kts 265°
2026-04-25 07:47 4.99884 6.74031 4499 ft 223 kts 264°
2026-04-25 07:47 4.99762 6.72493 4491 ft 221 kts 265°
2026-04-25 07:47 4.99640 6.70964 4489 ft 220 kts 265°
2026-04-25 07:48 4.99518 6.69434 4487 ft 219 kts 264°
2026-04-25 07:48 4.99395 6.67904 4485 ft 219 kts 265°
2026-04-25 07:48 4.99265 6.66380 4482 ft 218 kts 264°
2026-04-25 07:48 4.99091 6.64882 4479 ft 218 kts 259°
2026-04-25 07:49 4.98799 6.63370 4478 ft 218 kts 259°
2026-04-25 07:49 4.98528 6.61877 4475 ft 218 kts 261°
2026-04-25 07:49 4.98418 6.60370 4474 ft 218 kts 266°
2026-04-25 07:49 4.98311 6.58866 4471 ft 218 kts 265°
2026-04-25 07:50 4.98214 6.57347 4463 ft 211 kts 264°
2026-04-25 07:50 4.98047 6.55924 4457 ft 203 kts 262°
2026-04-25 07:50 4.97884 6.54543 4457 ft 197 kts 262°
2026-04-25 07:50 4.97724 6.53183 4459 ft 193 kts 262°
2026-04-25 07:51 4.97573 6.51865 4458 ft 190 kts 263°
2026-04-25 07:51 4.97423 6.50554 4456 ft 188 kts 263°
2026-04-25 07:51 4.97271 6.49247 4456 ft 186 kts 263°
2026-04-25 07:51 4.97123 6.47968 4457 ft 186 kts 263°
2026-04-25 07:52 4.96981 6.46676 4456 ft 185 kts 263°
2026-04-25 07:52 4.96832 6.45394 4458 ft 185 kts 263°
2026-04-25 07:52 4.96681 6.44111 4458 ft 184 kts 262°
2026-04-25 07:52 4.96538 6.42833 4458 ft 184 kts 263°
2026-04-25 07:53 4.96394 6.41562 4457 ft 184 kts 262°
2026-04-25 07:53 4.96257 6.40289 4458 ft 183 kts 264°
2026-04-25 07:53 4.96130 6.39018 4458 ft 183 kts 263°
2026-04-25 07:53 4.96006 6.37746 4458 ft 183 kts 263°
2026-04-25 07:54 4.95886 6.36475 4460 ft 183 kts 264°
2026-04-25 07:54 4.95758 6.35204 4457 ft 183 kts 263°
2026-04-25 07:54 4.95632 6.33927 4457 ft 183 kts 264°
2026-04-25 07:54 4.95506 6.32645 4456 ft 183 kts 264°
2026-04-25 07:55 4.95378 6.31379 4457 ft 183 kts 263°
2026-04-25 07:55 4.95254 6.30120 4459 ft 183 kts 263°
2026-04-25 07:55 4.95125 6.28836 4458 ft 183 kts 263°
2026-04-25 07:55 4.95000 6.27580 4458 ft 183 kts 263°
2026-04-25 07:56 4.94879 6.26306 4456 ft 183 kts 263°
2026-04-25 07:56 4.94760 6.25027 4457 ft 183 kts 263°
2026-04-25 07:56 4.94776 6.23764 4449 ft 183 kts 287°
2026-04-25 07:56 4.95564 6.22787 4468 ft 183 kts 322°
2026-04-25 07:57 4.96596 6.22011 4463 ft 184 kts 322°
2026-04-25 07:57 4.97578 6.21274 4444 ft 170 kts 322°
2026-04-25 07:57 4.98504 6.20576 4441 ft 159 kts 322°
2026-04-25 07:57 4.99209 6.19792 4442 ft 148 kts 302°
2026-04-25 07:58 4.99772 6.18952 4444 ft 140 kts 302°
2026-04-25 07:58 5.00302 6.18163 4446 ft 133 kts 302°
2026-04-25 07:58 5.00808 6.17399 4443 ft 127 kts 302°
2026-04-25 07:58 5.01285 6.16690 4484 ft 120 kts 302°
2026-04-25 07:59 5.01759 6.15975 4469 ft 124 kts 303°
2026-04-25 07:59 5.02256 6.15226 4437 ft 139 kts 302°
2026-04-25 07:59 5.02822 6.14381 4474 ft 152 kts 302°
2026-04-25 07:59 5.03429 6.13452 4478 ft 164 kts 300°
2026-04-25 08:00 5.04045 6.12444 4473 ft 173 kts 300°
2026-04-25 08:00 5.04684 6.11389 4469 ft 180 kts 300°
2026-04-25 08:00 5.05344 6.10304 4466 ft 184 kts 301°
2026-04-25 08:00 5.06016 6.09196 4465 ft 188 kts 300°
2026-04-25 08:01 5.06702 6.08080 4463 ft 190 kts 301°
2026-04-25 08:01 5.07395 6.06937 4464 ft 192 kts 300°
2026-04-25 08:01 5.08095 6.05777 4464 ft 193 kts 300°
2026-04-25 08:01 5.08790 6.04629 4463 ft 194 kts 300°
2026-04-25 08:02 5.09498 6.03474 4464 ft 194 kts 301°
2026-04-25 08:02 5.10199 6.02320 4463 ft 194 kts 301°
2026-04-25 08:02 5.10912 6.01156 4463 ft 195 kts 301°
2026-04-25 08:02 5.11619 5.99996 4465 ft 195 kts 300°
2026-04-25 08:03 5.12335 5.98823 4464 ft 195 kts 300°
2026-04-25 08:03 5.13008 5.97653 4463 ft 195 kts 296°
2026-04-25 08:03 5.13641 5.96448 4462 ft 195 kts 300°
2026-04-25 08:03 5.14359 5.95282 4463 ft 195 kts 301°
2026-04-25 08:04 5.15090 5.94126 4462 ft 195 kts 302°
2026-04-25 08:04 5.15826 5.92992 4461 ft 195 kts 302°
2026-04-25 08:04 5.16574 5.91847 4461 ft 195 kts 302°
2026-04-25 08:04 5.17325 5.90711 4460 ft 195 kts 302°
2026-04-25 08:05 5.18088 5.89562 4460 ft 196 kts 302°
2026-04-25 08:05 5.18833 5.88436 4460 ft 196 kts 302°
2026-04-25 08:05 5.19595 5.87295 4458 ft 196 kts 303°
2026-04-25 08:05 5.20022 5.86027 4451 ft 193 kts 270°
2026-04-25 08:06 5.20005 5.84681 4461 ft 193 kts 270°
2026-04-25 08:06 5.20008 5.83332 4457 ft 193 kts 269°
2026-04-25 08:06 5.20004 5.81990 4456 ft 193 kts 269°
2026-04-25 08:06 5.20002 5.80644 4455 ft 194 kts 269°
2026-04-25 08:07 5.19877 5.79305 4452 ft 193 kts 257°
2026-04-25 08:07 5.19599 5.77977 4455 ft 193 kts 258°
2026-04-25 08:07 5.19332 5.76655 4454 ft 193 kts 258°
2026-04-25 08:07 5.19065 5.75325 4453 ft 192 kts 258°
2026-04-25 08:08 5.18803 5.74012 4452 ft 191 kts 258°
2026-04-25 08:08 5.18541 5.72717 4453 ft 190 kts 258°
2026-04-25 08:08 5.18301 5.71408 4453 ft 190 kts 262°
2026-04-25 08:08 5.18167 5.70095 4452 ft 189 kts 263°
2026-04-25 08:09 5.18027 5.68783 4453 ft 189 kts 264°
2026-04-25 08:09 5.17891 5.67480 4452 ft 189 kts 264°
2026-04-25 08:09 5.17752 5.66166 4453 ft 188 kts 264°
2026-04-25 08:09 5.17616 5.64861 4454 ft 188 kts 264°
2026-04-25 08:10 5.17478 5.63544 4454 ft 188 kts 263°
2026-04-25 08:10 5.17342 5.62245 4453 ft 188 kts 263°
2026-04-25 08:10 5.17202 5.60908 4462 ft 198 kts 263°
2026-04-25 08:10 5.17055 5.59508 4462 ft 205 kts 264°
2026-04-25 08:11 5.16905 5.58089 4453 ft 205 kts 264°
2026-04-25 08:11 5.16756 5.56663 4452 ft 204 kts 263°
2026-04-25 08:11 5.16609 5.55255 4452 ft 204 kts 263°
2026-04-25 08:11 5.16458 5.53832 4451 ft 204 kts 263°
2026-04-25 08:12 5.16307 5.52425 4452 ft 204 kts 264°
2026-04-25 08:12 5.16159 5.50999 4453 ft 204 kts 264°
2026-04-25 08:12 5.16011 5.49593 4452 ft 204 kts 264°
2026-04-25 08:12 5.15861 5.48183 4452 ft 204 kts 263°
2026-04-25 08:13 5.15713 5.46766 4452 ft 204 kts 264°
2026-04-25 08:13 5.15563 5.45341 4452 ft 204 kts 263°
2026-04-25 08:13 5.15414 5.43931 4451 ft 204 kts 264°
2026-04-25 08:14 5.15144 5.41105 4445 ft 204 kts 272°
2026-04-25 08:14 5.15731 5.39850 4448 ft 203 kts 319°
2026-04-25 08:14 5.16996 5.39244 4468 ft 203 kts 340°
2026-04-25 08:14 5.18330 5.38724 4452 ft 204 kts 338°
2026-04-25 08:15 5.19666 5.38211 4450 ft 205 kts 338°
2026-04-25 08:15 5.21001 5.37699 4450 ft 205 kts 339°
2026-04-25 08:15 5.22342 5.37183 4449 ft 205 kts 339°
2026-04-25 08:15 5.23678 5.36670 4450 ft 205 kts 339°
2026-04-25 08:16 5.25033 5.36151 4448 ft 206 kts 339°
2026-04-25 08:16 5.26378 5.35632 4447 ft 206 kts 338°
2026-04-25 08:16 5.27707 5.35123 4449 ft 205 kts 339°
2026-04-25 08:16 5.29065 5.34598 4449 ft 205 kts 339°
2026-04-25 08:17 5.30390 5.34089 4447 ft 205 kts 339°
2026-04-25 08:17 5.31737 5.33571 4449 ft 205 kts 338°
2026-04-25 08:17 5.33082 5.33053 4449 ft 205 kts 339°
2026-04-25 08:17 5.34415 5.32542 4449 ft 206 kts 338°
2026-04-25 08:18 5.35767 5.32020 4448 ft 206 kts 339°
2026-04-25 08:18 5.37073 5.31426 4443 ft 205 kts 326°
2026-04-25 08:18 5.38239 5.30601 4450 ft 205 kts 325°
2026-04-25 08:18 5.39418 5.29797 4448 ft 205 kts 325°
2026-04-25 08:19 5.40593 5.28983 4447 ft 205 kts 325°
2026-04-25 08:19 5.41780 5.28169 4448 ft 205 kts 325°
2026-04-25 08:19 5.42940 5.27368 4445 ft 201 kts 325°
2026-04-25 08:19 5.44097 5.26572 4446 ft 198 kts 324°
2026-04-25 08:20 5.45227 5.25793 4445 ft 195 kts 325°
2026-04-25 08:20 5.46347 5.25026 4448 ft 194 kts 325°
2026-04-25 08:20 5.47464 5.24257 4446 ft 193 kts 325°
2026-04-25 08:20 5.48560 5.23503 4447 ft 192 kts 325°
2026-04-25 08:21 5.49674 5.22738 4448 ft 191 kts 325°
2026-04-25 08:21 5.50764 5.21987 4448 ft 191 kts 324°
2026-04-25 08:21 5.51872 5.21228 4449 ft 191 kts 325°
2026-04-25 08:21 5.52968 5.20474 4449 ft 191 kts 324°
2026-04-25 08:22 5.54067 5.19716 4448 ft 191 kts 325°
2026-04-25 08:22 5.55160 5.18966 4449 ft 190 kts 324°
2026-04-25 08:22 5.56259 5.18211 4448 ft 190 kts 324°
2026-04-25 08:22 5.57349 5.17461 4449 ft 190 kts 325°
2026-04-25 08:23 5.58445 5.16706 4450 ft 190 kts 324°
2026-04-25 08:23 5.59548 5.15949 4449 ft 190 kts 324°
2026-04-25 08:23 5.60642 5.15193 4449 ft 191 kts 325°
2026-04-25 08:23 5.61742 5.14440 4449 ft 191 kts 325°
2026-04-25 08:24 5.62838 5.13686 4448 ft 190 kts 324°
2026-04-25 08:24 5.63941 5.12950 4449 ft 190 kts 326°
2026-04-25 08:24 5.65058 5.12227 4448 ft 190 kts 326°
2026-04-25 08:24 5.66193 5.11494 4449 ft 190 kts 327°
2026-04-25 08:25 5.67307 5.10774 4450 ft 190 kts 326°
2026-04-25 08:25 5.68424 5.10051 4448 ft 190 kts 326°
2026-04-25 08:25 5.69549 5.09325 4449 ft 190 kts 326°
2026-04-25 08:25 5.70675 5.08597 4448 ft 190 kts 326°
2026-04-25 08:26 5.71789 5.07875 4448 ft 190 kts 326°
2026-04-25 08:26 5.72912 5.07146 4449 ft 190 kts 326°
2026-04-25 08:26 5.74037 5.06420 4449 ft 190 kts 326°
2026-04-25 08:26 5.75140 5.05706 4449 ft 190 kts 326°
2026-04-25 08:27 5.76262 5.04982 4450 ft 191 kts 326°
2026-04-25 08:27 5.77384 5.04255 4449 ft 191 kts 326°
2026-04-25 08:27 5.78509 5.03529 4449 ft 191 kts 326°
2026-04-25 08:27 5.79624 5.02806 4447 ft 190 kts 326°
2026-04-25 08:28 5.80736 5.02085 4448 ft 190 kts 326°
2026-04-25 08:28 5.81859 5.01358 4448 ft 190 kts 326°
2026-04-25 08:28 5.82973 5.00637 4449 ft 191 kts 326°
2026-04-25 08:28 5.84093 4.99911 4449 ft 191 kts 326°
2026-04-25 08:29 5.85225 4.99183 4448 ft 191 kts 326°
2026-04-25 08:29 5.86335 4.98462 4450 ft 191 kts 326°
2026-04-25 08:29 5.87467 4.97731 4448 ft 191 kts 326°
2026-04-25 08:29 5.88579 4.97009 4448 ft 191 kts 326°
2026-04-25 08:30 5.89703 4.96281 4449 ft 191 kts 326°
2026-04-25 08:30 5.90827 4.95553 4449 ft 191 kts 326°
2026-04-25 08:30 5.91885 4.94759 4443 ft 190 kts 311°
2026-04-25 08:30 5.92701 4.93724 4450 ft 189 kts 308°
2026-04-25 08:31 5.93546 4.92679 4449 ft 190 kts 307°
2026-04-25 08:31 5.94366 4.91650 4449 ft 190 kts 307°
2026-04-25 08:31 5.95197 4.90613 4449 ft 190 kts 308°
2026-04-25 08:31 5.96021 4.89578 4449 ft 190 kts 308°
2026-04-25 08:32 5.96859 4.88532 4448 ft 190 kts 308°
2026-04-25 08:32 5.97684 4.87504 4447 ft 190 kts 308°
2026-04-25 08:32 5.98518 4.86463 4449 ft 190 kts 307°
2026-04-25 08:32 5.99345 4.85429 4447 ft 190 kts 308°
2026-04-25 08:33 6.00173 4.84395 4449 ft 190 kts 307°
2026-04-25 08:33 6.01001 4.83362 4448 ft 190 kts 307°
2026-04-25 08:33 6.01833 4.82323 4449 ft 190 kts 308°
2026-04-25 08:33 6.02667 4.81283 4449 ft 190 kts 308°
2026-04-25 08:34 6.03490 4.80254 4449 ft 190 kts 308°
2026-04-25 08:34 6.04325 4.79209 4448 ft 190 kts 308°
2026-04-25 08:34 6.05160 4.78168 4448 ft 190 kts 308°
2026-04-25 08:34 6.05979 4.77141 4448 ft 190 kts 308°
2026-04-25 08:35 6.06812 4.76102 4450 ft 190 kts 307°
2026-04-25 08:35 6.07642 4.75065 4450 ft 190 kts 308°
2026-04-25 08:35 6.08472 4.74028 4448 ft 190 kts 308°
2026-04-25 08:35 6.09305 4.72989 4447 ft 190 kts 308°
2026-04-25 08:36 6.10139 4.71949 4448 ft 190 kts 308°
2026-04-25 08:36 6.10978 4.70898 4447 ft 190 kts 308°
2026-04-25 08:36 6.11809 4.69861 4446 ft 190 kts 307°
2026-04-25 08:36 6.12631 4.68832 4449 ft 190 kts 307°
2026-04-25 08:37 6.13458 4.67797 4449 ft 190 kts 307°
2026-04-25 08:37 6.14288 4.66760 4449 ft 190 kts 307°
2026-04-25 08:37 6.15120 4.65720 4448 ft 190 kts 307°
2026-04-25 08:37 6.15950 4.64682 4447 ft 190 kts 308°
2026-04-25 08:38 6.16780 4.63646 4447 ft 190 kts 308°
2026-04-25 08:38 6.17610 4.62607 4448 ft 190 kts 307°
2026-04-25 08:38 6.18441 4.61568 4448 ft 190 kts 308°
2026-04-25 08:38 6.19269 4.60537 4449 ft 190 kts 307°
2026-04-25 08:39 6.20107 4.59489 4447 ft 190 kts 308°
2026-04-25 08:39 6.20936 4.58450 4447 ft 190 kts 308°
2026-04-25 08:39 6.21761 4.57415 4448 ft 190 kts 307°
2026-04-25 08:39 6.22589 4.56382 4449 ft 190 kts 308°
2026-04-25 08:40 6.23423 4.55342 4449 ft 190 kts 307°
2026-04-25 08:40 6.24259 4.54296 4448 ft 190 kts 307°
2026-04-25 08:40 6.25081 4.53265 4447 ft 190 kts 308°
2026-04-25 08:40 6.25906 4.52234 4447 ft 190 kts 307°
2026-04-25 08:41 6.26741 4.51188 4448 ft 190 kts 307°
2026-04-25 08:41 6.27571 4.50149 4448 ft 190 kts 308°
2026-04-25 08:41 6.28404 4.49111 4448 ft 190 kts 307°
2026-04-25 08:41 6.29231 4.48073 4448 ft 191 kts 308°
2026-04-25 08:42 6.30081 4.47012 4452 ft 194 kts 307°
2026-04-25 08:42 6.30940 4.45933 4459 ft 204 kts 307°
2026-04-25 08:42 6.31856 4.44792 4458 ft 213 kts 307°
2026-04-25 08:42 6.32802 4.43607 4455 ft 220 kts 308°
2026-04-25 08:43 6.33764 4.42407 4452 ft 223 kts 308°
2026-04-25 08:43 6.34751 4.41168 4451 ft 226 kts 308°
2026-04-25 08:43 6.35728 4.39943 4451 ft 227 kts 308°
2026-04-25 08:43 6.36738 4.38685 4450 ft 228 kts 308°
2026-04-25 08:44 6.37721 4.37449 4449 ft 228 kts 308°
2026-04-25 08:44 6.38670 4.36157 4445 ft 228 kts 300°
2026-04-25 08:44 6.39458 4.34788 4445 ft 222 kts 300°
2026-04-25 08:44 6.40240 4.33476 4447 ft 217 kts 299°
2026-04-25 08:45 6.41001 4.32184 4447 ft 213 kts 299°
2026-04-25 08:45 6.41753 4.30906 4449 ft 212 kts 299°
2026-04-25 08:45 6.42511 4.29625 4449 ft 210 kts 299°
2026-04-25 08:45 6.43256 4.28356 4449 ft 210 kts 300°
2026-04-25 08:46 6.44003 4.27099 4451 ft 209 kts 300°
2026-04-25 08:46 6.44744 4.25843 4449 ft 209 kts 300°
2026-04-25 08:46 6.45481 4.24600 4450 ft 208 kts 300°
2026-04-25 08:46 6.46223 4.23338 4451 ft 209 kts 300°
2026-04-25 08:47 6.46966 4.22087 4450 ft 209 kts 300°
2026-04-25 08:47 6.47714 4.20824 4450 ft 208 kts 299°
2026-04-25 08:47 6.48449 4.19577 4451 ft 208 kts 299°
2026-04-25 08:47 6.49190 4.18326 4453 ft 208 kts 300°
2026-04-25 08:48 6.49928 4.17068 4453 ft 208 kts 299°
2026-04-25 08:48 6.50677 4.15805 4452 ft 208 kts 300°
2026-04-25 08:48 6.51414 4.14556 4453 ft 208 kts 299°
2026-04-25 08:48 6.52161 4.13294 4453 ft 208 kts 299°
2026-04-25 08:49 6.52907 4.12036 4453 ft 208 kts 300°
2026-04-25 08:49 6.53645 4.10778 4454 ft 209 kts 299°
2026-04-25 08:49 6.54385 4.09528 4453 ft 209 kts 299°
2026-04-25 08:49 6.55128 4.08273 4454 ft 208 kts 299°
2026-04-25 08:50 6.55866 4.07017 4453 ft 208 kts 300°
2026-04-25 08:50 6.56605 4.05767 4454 ft 208 kts 299°
2026-04-25 08:50 6.57347 4.04511 4454 ft 208 kts 299°
2026-04-25 08:50 6.58086 4.03259 4455 ft 209 kts 299°
2026-04-25 08:51 6.58836 4.01993 4454 ft 208 kts 299°
2026-04-25 08:51 6.59569 4.00750 4455 ft 209 kts 299°
2026-04-25 08:51 6.60221 3.99428 4451 ft 207 kts 287°
2026-04-25 08:51 6.60649 3.98041 4457 ft 207 kts 287°
2026-04-25 08:52 6.61091 3.96682 4453 ft 204 kts 286°
2026-04-25 08:52 6.61520 3.95343 4451 ft 201 kts 287°
2026-04-25 08:52 6.61951 3.94001 4452 ft 198 kts 287°
2026-04-25 08:52 6.62378 3.92693 4455 ft 197 kts 287°
2026-04-25 08:53 6.62801 3.91382 4454 ft 196 kts 287°
2026-04-25 08:53 6.63221 3.90085 4454 ft 195 kts 287°
2026-04-25 08:53 6.63646 3.88773 4455 ft 195 kts 287°
2026-04-25 08:53 6.64061 3.87489 4455 ft 194 kts 287°
2026-04-25 08:54 6.64482 3.86188 4455 ft 194 kts 287°
2026-04-25 08:54 6.64900 3.84898 4454 ft 195 kts 287°
2026-04-25 08:54 6.65321 3.83601 4456 ft 194 kts 287°
2026-04-25 08:54 6.65737 3.82312 4455 ft 194 kts 287°
2026-04-25 08:55 6.66159 3.81010 4454 ft 194 kts 287°
2026-04-25 08:55 6.66579 3.79710 4454 ft 194 kts 287°
2026-04-25 08:55 6.66994 3.78422 4455 ft 194 kts 287°
2026-04-25 08:55 6.67410 3.77137 4455 ft 194 kts 287°
2026-04-25 08:56 6.67828 3.75848 4456 ft 194 kts 287°
2026-04-25 08:56 6.68247 3.74547 4455 ft 194 kts 287°
2026-04-25 08:56 6.68666 3.73255 4455 ft 194 kts 287°
2026-04-25 08:56 6.69087 3.71956 4455 ft 194 kts 287°
2026-04-25 08:57 6.69505 3.70659 4454 ft 194 kts 287°
2026-04-25 08:57 6.69923 3.69366 4456 ft 194 kts 287°
2026-04-25 08:57 6.70344 3.68071 4456 ft 194 kts 286°
2026-04-25 08:57 6.70757 3.66786 4456 ft 194 kts 287°
2026-04-25 08:58 6.71178 3.65487 4456 ft 194 kts 286°
2026-04-25 08:58 6.71594 3.64206 4456 ft 194 kts 286°
2026-04-25 08:58 6.72011 3.62910 4456 ft 194 kts 286°
2026-04-25 08:58 6.72431 3.61618 4457 ft 194 kts 286°
2026-04-25 08:59 6.72849 3.60318 4458 ft 194 kts 286°
2026-04-25 08:59 6.73268 3.59022 4459 ft 194 kts 286°
2026-04-25 08:59 6.73682 3.57741 4459 ft 194 kts 287°
2026-04-25 08:59 6.74103 3.56441 4307 ft 197 kts 287°
2026-04-25 09:00 6.74534 3.55118 3930 ft 203 kts 286°
2026-04-25 09:00 6.74977 3.53745 3550 ft 206 kts 285°
2026-04-25 09:00 6.75420 3.52376 3172 ft 207 kts 285°
2026-04-25 09:00 6.75863 3.51005 2793 ft 207 kts 285°
2026-04-25 09:01 6.76307 3.49625 2466 ft 205 kts 285°
2026-04-25 09:01 6.76735 3.48296 2423 ft 191 kts 285°
2026-04-25 09:01 6.77131 3.47068 2425 ft 179 kts 285°
2026-04-25 09:01 6.77511 3.45896 2426 ft 172 kts 284°
2026-04-25 09:02 6.77873 3.44773 2429 ft 169 kts 285°
2026-04-25 09:02 6.78241 3.43629 2438 ft 172 kts 285°
2026-04-25 09:02 6.78742 3.42515 2438 ft 176 kts 294°
2026-04-25 09:02 6.79312 3.41419 2439 ft 178 kts 294°
2026-04-25 09:03 6.79891 3.40321 2435 ft 179 kts 294°
2026-04-25 09:03 6.80479 3.39201 2436 ft 179 kts 294°
2026-04-25 09:03 6.81061 3.38081 2435 ft 180 kts 294°
2026-04-25 09:03 6.81640 3.36968 2436 ft 181 kts 294°
2026-04-25 09:04 6.82200 3.35838 2431 ft 176 kts 286°
2026-04-25 09:04 6.82128 3.34720 2412 ft 153 kts 238°
2026-04-25 09:04 6.81320 3.34090 2209 ft 154 kts 196°
2026-04-25 09:04 6.80212 3.34139 1895 ft 163 kts 175°
2026-04-25 09:05 6.79083 3.34091 1570 ft 162 kts 192°
2026-04-25 09:05 6.77959 3.33880 1439 ft 165 kts 193°
2026-04-25 09:05 6.76914 3.33425 1437 ft 163 kts 211°
2026-04-25 09:05 6.75912 3.32899 1427 ft 156 kts 204°
2026-04-25 09:06 6.74882 3.32730 1425 ft 146 kts 179°
2026-04-25 09:06 6.73866 3.32776 1441 ft 147 kts 180°
2026-04-25 09:06 6.72811 3.32820 1445 ft 152 kts 180°
2026-04-25 09:06 6.71743 3.32863 1440 ft 155 kts 180°
2026-04-25 09:07 6.70653 3.32878 1446 ft 157 kts 186°
2026-04-25 09:07 6.69558 3.32785 1441 ft 156 kts 182°
2026-04-25 09:07 6.68489 3.32843 1433 ft 150 kts 179°
2026-04-25 09:07 6.67443 3.32906 1433 ft 148 kts 179°
2026-04-25 09:08 6.66440 3.32967 1414 ft 137 kts 179°
2026-04-25 09:08 6.65509 3.32977 1263 ft 121 kts 183°
2026-04-25 09:08 6.64729 3.32943 1070 ft 104 kts 185°
2026-04-25 09:08 6.64034 3.32916 838 ft 98 kts 183°
2026-04-25 09:09 6.63368 3.32901 683 ft 97 kts 183°
2026-04-25 09:09 6.62674 3.32872 678 ft 101 kts 183°
2026-04-25 09:09 6.61963 3.32883 612 ft 96 kts 181°
2026-04-25 09:09 6.61291 3.32874 482 ft 95 kts 180°
2026-04-25 09:10 6.60624 3.32883 345 ft 95 kts 180°
2026-04-25 09:10 6.59983 3.32880 223 ft 90 kts 181°
2026-04-25 09:10 6.59378 3.32888 128 ft 78 kts 178°
2026-04-25 09:10 6.59119 3.32923 127 ft 0 kts 122°
2026-04-25 09:11 6.59151 3.33034 129 ft 8 kts 38°
2026-04-25 09:11 6.59214 3.33035 129 ft 11 kts 355°
2026-04-25 09:11 6.59302 3.33035 129 ft 10 kts
2026-04-25 09:12 6.59317 3.33046 130 ft 1 kts 69°
2026-04-25 09:12 6.59319 3.33061 130 ft 2 kts 90°
2026-04-25 09:12 6.59319 3.33073 130 ft 0 kts 88°